Wind_Speed
10 10 10 11 11 12 13 13 13 14 15 17 17 18 18 19 19 20 21 21 22 21 21 21 22 22 23 24 24 24 24 24 24 24 24 23 24 24 24 24 24 26 26
10 10 10 10 11 12 12 13 14 14 15 15 16 17 18 19 19 20 20 22 22 23 22 22 23 24 24 25 25 26 26 26 26 26 25 25 25 26 26 27 26 27 27
10 10 10 11 11 12 12 13 13 13 14 14 16 17 18 18 19 20 21 21 22 23 23 23 24 24 25 25 26 27 27 27 27 27 27 27 27 27 28 29 29 29 29
11 11 10 10 10 11 12 13 13 13 13 14 15 17 17 18 19 20 21 21 22 22 23 24 24 24 25 26 26 26 27 28 28 28 28 29 29 30 30 31 30 31 32
11 11 10 10 11 11 12 12 12 13 14 13 14 16 18 19 19 20 21 21 21 22 23 24 24 25 26 27 27 28 29 29 30 30 30 31 32 33 33 33 32 33 33
12 12 12 11 12 12 12 12 12 13 13 14 15 16 18 19 20 20 20 21 22 23 24 25 26 27 28 29 29 30 30 31 32 32 33 33 34 34 34 34 35 35 36
14 14 13 13 13 13 12 12 12 13 14 15 16 17 18 19 20 21 21 22 23 24 25 26 26 27 28 28 28 30 31 31 31 32 33 34 34 34 35 36 36 37 38
15 15 14 14 14 14 13 13 14 14 15 15 16 18 18 19 19 20 23 24 24 25 26 27 27 28 28 28 28 29 29 30 32 33 34 35 35 36 37 37 37 38 39
16 16 16 15 15 15 15 15 15 16 16 16 17 17 17 18 18 19 21 23 24 25 26 27 28 28 28 29 29 29 30 31 32 33 34 35 36 37 38 38 39 41 42
17 17 17 17 16 16 17 17 17 17 17 17 18 18 17 17 18 19 21 23 24 25 26 27 28 29 29 30 30 30 30 31 33 34 35 36 36 37 38 40 41 42 44
19 19 19 18 18 18 18 18 19 18 18 17 18 18 19 20 21 21 22 23 24 25 26 27 28 29 30 30 31 32 32 33 34 35 35 36 37 38 40 41 43 45 46
21 20 20 20 19 19 19 19 20 19 19 19 19 20 20 20 20 21 21 23 25 26 27 28 28 29 30 31 32 33 34 34 35 36 37 38 39 40 42 43 44 46 47
22 21 21 21 20 20 20 20 20 20 20 20 21 21 21 21 22 22 23 24 25 26 27 28 30 30 30 31 32 33 34 35 36 37 38 38 40 41 42 43 44 46 47
22 22 21 21 21 21 21 21 21 21 21 21 22 22 22 22 22 23 23 24 25 26 28 29 30 31 33 34 34 35 35 36 37 38 39 39 41 42 44 45 45 46 47
22 22 22 21 21 21 21 22 22 22 22 22 23 23 22 23 24 24 25 26 27 28 29 30 31 32 33 34 35 35 36 36 37 38 39 41 42 42 43 44 44 45 45
22 22 22 22 22 23 23 23 23 23 23 23 23 24 24 24 25 25 26 27 28 30 31 31 32 33 34 35 35 35 36 36 37 39 40 41 41 42 43 43 44 44 44
22 22 22 22 22 23 23 24 24 24 24 24 24 25 25 26 26 26 27 28 29 30 31 32 32 33 34 34 34 34 35 36 37 38 39 40 41 42 42 42 42 42 41
23 23 22 22 22 23 23 24 24 24 24 24 24 24 25 25 27 28 28 29 30 31 31 32 32 32 33 34 34 35 36 36 37 39 40 40 40 40 40 40 40 39 39
23 23 23 23 23 23 23 23 23 23 23 23 24 25 26 27 28 28 29 30 31 31 31 32 32 33 34 35 35 36 37 37 38 39 39 39 39 38 38 38 38 38 38
22 22 22 22 22 22 22 22 23 23 24 24 25 26 27 28 28 29 30 30 31 31 31 32 32 33 34 35 35 36 36 37 38 38 38 38 38 37 36 36 36 36 36
20 21 21 21 21 21 21 22 23 24 25 26 27 28 28 29 29 29 30 30 30 31 31 31 32 33 33 34 34 35 36 36 37 37 37 36 36 35 35 34 34 34 34
21 21 21 21 22 22 23 24 25 26 27 28 28 29 29 29 29 30 30 30 31 31 31 31 32 32 33 33 34 35 35 35 35 35 35 34 33 33 33 33 32 32 32
21 21 21 21 22 23 24 25 26 27 27 28 29 28 28 29 29 29 30 30 30 30 30 31 31 32 32 33 34 34 34 33 33 33 33 32 31 31 30 30 30 30 29
20 20 21 22 23 24 25 26 27 27 28 28 28 29 29 29 29 30 30 30 30 30 31 31 32 32 32 33 33 33 32 32 31 31 31 30 29 29 29 28 28 28 28
21 21 22 23 24 25 25 26 27 27 27 27 27 28 28 29 29 30 30 30 31 31 31 31 30 31 31 31 31 31 30 30 29 29 29 28 28 27 27 26 26 26 26
21 22 22 23 24 24 25 25 26 26 26 26 27 28 29 30 30 30 30 30 30 30 30 30 30 30 30 30 29 29 29 29 29 28 28 27 26 26 25 25 25 24 24
Wind_Direction
295 288 282 283 284 277 275 269 261 257 254 253 250 247 247 247 247 246 246 250 253 257 259 259 259 260 261 263 265 266 267 268 269 271 272 273 274 276 276 276 277 278 279
292 293 292 288 285 281 277 271 265 264 260 255 251 248 248 248 249 250 250 252 255 257 259 260 262 264 264 266 267 268 269 271 272 272 272 273 276 279 279 279 280 279 279
300 297 296 293 290 285 281 275 272 266 261 260 255 251 251 252 252 251 252 254 256 257 258 261 265 264 266 268 269 269 270 272 274 273 273 274 275 278 280 280 281 282 282
304 301 296 295 296 292 286 281 276 270 270 266 258 255 254 254 255 254 255 257 258 260 261 263 267 269 269 270 271 270 270 272 274 274 274 276 278 279 280 280 281 283 283
304 304 301 299 297 296 293 290 282 276 274 270 268 261 258 259 259 259 258 259 261 263 265 266 267 269 269 270 272 271 271 272 273 274 274 276 278 280 280 280 280 281 283
303 304 301 299 297 296 293 292 289 286 279 274 274 269 265 264 262 261 261 262 264 266 267 269 268 269 270 272 273 272 272 272 272 275 275 277 278 280 281 281 280 281 282
300 302 299 300 298 295 294 296 296 291 286 281 277 273 269 267 263 261 261 263 266 267 270 273 273 273 273 274 275 274 274 275 275 276 277 278 279 280 282 282 282 282 283
295 298 299 301 300 298 296 296 298 291 285 282 280 276 273 271 269 264 263 265 268 271 273 276 278 278 278 277 278 277 276 276 277 279 279 280 281 282 282 283 284 284 284
293 295 297 300 298 297 297 297 296 295 291 289 286 282 279 276 272 270 269 268 271 273 275 276 278 277 278 279 279 280 280 280 281 281 282 283 283 283 282 284 285 285 285
290 293 294 296 294 295 296 296 294 294 295 293 290 287 284 283 280 278 276 274 275 275 275 277 279 280 281 282 282 283 283 284 284 283 282 282 283 283 284 285 286 286 287
288 290 292 294 293 292 295 296 295 294 294 297 296 291 286 284 282 282 281 280 279 279 280 281 283 284 284 285 285 286 286 285 285 284 284 285 285 286 286 287 287 287 288
286 288 289 290 294 292 294 295 297 296 293 294 296 297 293 287 284 282 282 281 281 282 283 284 286 286 286 287 287 287 287 287 287 287 287 287 287 288 288 289 290 290 290
283 284 285 288 291 294 294 293 293 294 293 291 291 292 293 291 288 286 287 287 286 287 288 288 289 290 290 291 291 291 291 291 291 291 291 291 291 291 292 292 292 292 292
281 282 284 285 288 290 292 292 292 294 296 296 295 294 293 292 290 290 290 292 293 293 292 292 293 293 293 293 293 294 294 293 293 293 293 293 293 294 294 293 294 294 295
282 282 283 284 286 289 291 292 293 294 296 295 295 295 294 292 292 292 293 293 295 296 296 295 296 295 296 296 295 295 295 296 295 294 294 295 296 297 297 296 296 296 297
281 281 282 283 285 286 288 290 291 292 293 294 294 293 294 294 295 295 295 295 296 298 298 298 298 298 297 297 296 296 296 296 295 295 296 297 298 299 299 298 298 298 298
283 283 284 285 286 288 289 291 293 293 293 294 295 295 295 295 295 296 298 298 298 300 300 300 300 299 299 298 298 298 298 298 298 299 300 300 300 301 301 300 300 300 300
281 283 284 285 286 287 289 291 293 294 295 295 297 297 296 297 298 299 301 302 301 301 301 301 301 301 301 301 300 301 302 302 302 303 303 303 302 302 302 302 302 302 301
280 282 284 285 285 287 289 291 293 295 298 299 299 298 296 297 299 300 301 301 302 302 302 303 303 303 303 304 303 303 304 304 304 304 304 303 303 303 303 304 304 303 303
279 281 283 284 285 287 290 292 293 295 297 299 297 297 297 298 299 300 302 303 303 303 304 304 304 304 304 305 305 305 305 305 305 305 304 304 304 304 305 305 306 306 306
280 281 284 285 286 287 290 293 294 296 297 297 297 298 298 299 300 301 302 303 303 304 304 304 304 305 305 305 306 306 307 307 306 306 306 307 307 307 307 308 308 309 309
281 283 284 284 284 286 289 292 294 295 295 296 297 298 298 300 301 302 302 302 303 303 303 304 305 305 306 307 308 308 308 309 309 310 310 309 309 309 309 310 311 311 312
280 282 283 284 286 288 290 293 294 296 297 297 298 299 299 300 302 302 303 303 304 304 304 304 305 305 306 308 309 310 311 311 311 312 312 311 311 311 312 313 313 313 314
281 283 284 285 287 289 291 294 295 296 297 298 298 299 300 301 302 303 303 304 304 304 304 305 306 306 307 309 310 311 312 313 313 314 314 314 313 313 313 314 314 315 315
283 284 286 288 290 292 293 295 296 297 298 298 300 301 302 303 304 304 303 303 303 304 305 305 306 307 308 309 310 311 312 314 314 314 315 315 315 316 317 317 317 318 318
286 288 289 291 293 294 295 296 298 299 299 300 301 303 303 303 303 303 302 303 303 303 304 305 307 307 308 309 310 311 313 314 315 315 316 316 316 317 318 319 320 321 322
Height
5848 5848 5847 5847 5848 5847 5847 5848 5848 5849 5849 5851 5852 5853 5855 5856 5858 5860 5862 5863 5865 5866 5867 5868 5869 5869 5870 5871 5871 5871 5871 5871 5872 5872 5872 5872 5871 5871 5871 5870 5870 5870 5869
5847 5846 5846 5846 5845 5845 5845 5845 5845 5846 5846 5847 5848 5850 5851 5852 5854 5856 5857 5859 5860 5861 5862 5863 5863 5864 5865 5865 5865 5865 5865 5865 5866 5866 5866 5866 5865 5865 5864 5863 5863 5863 5862
5845 5844 5844 5844 5843 5843 5843 5842 5842 5843 5843 5844 5845 5846 5847 5848 5850 5851 5853 5854 5855 5856 5857 5858 5858 5858 5858 5859 5859 5859 5859 5859 5859 5859 5859 5859 5859 5858 5857 5856 5855 5855 5854
5844 5843 5842 5842 5842 5841 5840 5840 5840 5840 5840 5840 5841 5842 5843 5844 5845 5847 5848 5849 5850 5851 5851 5852 5852 5852 5852 5852 5852 5852 5852 5852 5852 5852 5852 5852 5851 5850 5850 5849 5848 5847 5845
5842 5841 5840 5840 5840 5839 5838 5838 5837 5837 5837 5837 5837 5838 5839 5840 5841 5842 5843 5844 5845 5846 5846 5846 5846 5846 5846 5846 5845 5845 5845 5845 5844 5844 5844 5844 5843 5842 5841 5840 5839 5838 5836
5840 5840 5839 5838 5837 5837 5836 5835 5834 5834 5834 5834 5834 5834 5835 5836 5837 5837 5838 5839 5840 5840 5840 5840 5840 5840 5839 5839 5838 5837 5837 5837 5837 5836 5836 5836 5835 5833 5832 5830 5830 5829 5827
5838 5837 5837 5836 5835 5834 5833 5833 5832 5831 5831 5831 5830 5830 5830 5831 5831 5832 5833 5834 5835 5835 5835 5834 5833 5833 5833 5832 5831 5830 5829 5829 5829 5828 5827 5826 5825 5824 5822 5821 5819 5818 5817
5836 5835 5833 5832 5832 5831 5831 5830 5829 5828 5828 5827 5827 5826 5826 5826 5826 5827 5828 5828 5829 5829 5828 5828 5828 5827 5826 5825 5824 5823 5822 5821 5820 5820 5819 5817 5816 5814 5812 5811 5809 5807 5806
5833 5832 5831 5830 5829 5829 5828 5827 5826 5825 5824 5824 5823 5822 5822 5822 5822 5822 5822 5822 5822 5822 5822 5822 5821 5820 5819 5818 5817 5816 5814 5813 5812 5810 5809 5808 5806 5804 5802 5800 5798 5796 5794
5830 5829 5828 5827 5826 5825 5825 5824 5823 5822 5821 5820 5819 5818 5818 5817 5817 5817 5817 5816 5816 5816 5816 5815 5814 5813 5812 5810 5809 5808 5806 5805 5803 5801 5800 5798 5796 5794 5792 5790 5787 5784 5782
5826 5825 5824 5823 5823 5822 5821 5820 5819 5818 5817 5816 5815 5814 5814 5813 5813 5812 5812 5811 5811 5810 5809 5808 5807 5806 5805 5803 5801 5799 5798 5796 5794 5792 5790 5788 5786 5783 5780 5777 5774 5771 5768
5822 5821 5820 5819 5818 5817 5816 5815 5815 5813 5813 5812 5811 5811 5810 5808 5807 5807 5806 5805 5804 5803 5802 5801 5800 5798 5797 5795 5793 5791 5789 5786 5784 5782 5780 5777 5774 5771 5768 5765 5762 5758 5754
5817 5816 5816 5815 5814 5813 5812 5811 5810 5809 5809 5808 5807 5806 5805 5803 5802 5801 5800 5799 5798 5797 5795 5794 5792 5790 5788 5786 5784 5782 5779 5777 5774 5772 5769 5766 5763 5759 5756 5753 5749 5745 5741
5811 5811 5810 5810 5809 5808 5808 5806 5806 5805 5803 5802 5802 5800 5799 5798 5796 5795 5794 5793 5791 5790 5788 5786 5784 5782 5780 5778 5775 5772 5770 5767 5764 5761 5757 5754 5751 5747 5744 5740 5736 5732 5727
5806 5806 5805 5805 5804 5803 5802 5801 5800 5799 5798 5797 5796 5795 5793 5792 5790 5789 5787 5786 5784 5783 5781 5778 5776 5774 5771 5768 5765 5762 5759 5756 5753 5750 5746 5743 5739 5735 5731 5727 5722 5718 5713
5801 5800 5800 5799 5799 5798 5797 5796 5794 5794 5793 5791 5790 5789 5787 5786 5784 5782 5780 5778 5776 5775 5772 5770 5767 5764 5761 5758 5755 5752 5749 5746 5742 5738 5734 5731 5726 5722 5718 5713 5709 5704 5700
5795 5795 5794 5794 5793 5792 5791 5790 5789 5788 5786 5785 5784 5782 5780 5779 5777 5775 5773 5771 5768 5766 5764 5761 5758 5755 5752 5748 5745 5742 5738 5735 5731 5727 5723 5718 5714 5710 5705 5700 5696 5691 5686
5789 5789 5788 5788 5787 5786 5785 5784 5783 5782 5780 5778 5777 5775 5773 5772 5770 5767 5765 5763 5760 5758 5755 5752 5749 5745 5742 5739 5735 5731 5728 5724 5720 5715 5711 5706 5702 5697 5693 5688 5683 5679 5674
5783 5783 5782 5782 5781 5780 5779 5778 5777 5776 5774 5772 5771 5769 5767 5765 5763 5760 5758 5755 5752 5749 5746 5743 5740 5736 5733 5729 5725 5721 5717 5713 5709 5704 5699 5695 5690 5686 5681 5677 5672 5667 5663
5777 5777 5777 5776 5775 5774 5773 5772 5771 5770 5768 5766 5764 5762 5760 5758 5756 5753 5750 5747 5744 5741 5737 5734 5730 5727 5723 5719 5715 5711 5706 5702 5698 5693 5688 5684 5679 5675 5670 5666 5662 5657 5653
5772 5771 5771 5770 5769 5768 5767 5766 5765 5763 5762 5759 5757 5755 5752 5750 5747 5745 5742 5739 5735 5732 5729 5725 5722 5718 5714 5710 5705 5701 5697 5692 5688 5683 5678 5674 5669 5665 5660 5656 5652 5647 5643
5767 5766 5765 5765 5763 5762 5761 5759 5758 5756 5754 5752 5750 5747 5744 5742 5739 5737 5734 5730 5727 5724 5720 5717 5713 5709 5705 5701 5697 5692 5687 5683 5678 5673 5669 5664 5660 5656 5651 5647 5643 5639 5635
5761 5760 5760 5759 5757 5756 5754 5753 5751 5749 5746 5744 5742 5739 5737 5734 5731 5728 5725 5722 5718 5715 5711 5708 5704 5700 5696 5692 5688 5683 5679 5674 5669 5665 5660 5656 5652 5647 5643 5639 5635 5631 5627
5755 5755 5754 5752 5751 5749 5747 5746 5743 5741 5739 5736 5734 5731 5729 5726 5723 5720 5717 5713 5710 5707 5703 5699 5696 5692 5688 5684 5679 5675 5671 5666 5662 5657 5653 5649 5644 5640 5636 5632 5628 5624 5620
5749 5748 5747 5746 5744 5742 5740 5738 5736 5734 5731 5729 5726 5724 5721 5718 5715 5712 5709 5705 5702 5698 5695 5691 5687 5684 5680 5676 5672 5668 5663 5659 5655 5650 5646 5642 5638 5634 5630 5626 5622 5618 5614
5743 5742 5741 5739 5737 5735 5733 5731 5728 5726 5724 5722 5719 5716 5713 5710 5707 5704 5701 5697 5694 5691 5687 5683 5680 5676 5672 5668 5664 5660 5656 5652 5648 5644 5640 5636 5632 5628 5624 5620 5617 5613 5609